This demonstration page uses our WeatherBlox Daily Observations layout. Learn more.

Left ArrowRight Arrow

38.88101, -77.10428

Hourly Observations for December 10, 2020

Temp ( °F °C ) Dew Point ( °F °C ) Humidity (%) Winds ( mph kmh ) Pressure ( in mb ) Visibility ( mi km ) Precip ( " mm )
12:52 am 00:52 Clear 33 0.6 29 -1.7 85 85 SSW 6 9 29.96 1015 10 16 0.00 0.00
1:52 am 01:52 Clear 35 1.7 28 -2.2 76 76 Calm 29.98 1015 10 16 0.00 0.00
2:52 am 02:52 Clear 34 1.1 28 -2.2 79 79 Calm 30.01 1016 10 16 0.00 0.00
3:52 am 03:52 Clear 32 0 28 -2.2 85 85 N 3 6 30.03 1017 10 16 0.00 0.00
4:52 am 04:52 Clear 33 0.6 29 -1.7 85 85 Calm 30.05 1018 10 16 0.00 0.00
5:52 am 05:52 Clear 33 0.6 30 -1.1 89 89 Calm 30.08 1019 10 16 0.00 0.00
6:52 am 06:52 Clear 32 0 28 -2.2 85 85 Calm 30.11 1020 10 16 0.00 0.00
7:52 am 07:52 Sunny 32 0 29 -1.7 88 88 SW 5 7 30.14 1021 8 13 0.00 0.00
8:52 am 08:52 Sunny 39 3.9 32 0 76 76 Calm 30.16 1021 9 14 0.00 0.00
9:52 am 09:52 Sunny 40 4.4 32 0 73 73 S 5 7 30.19 1022 8 13 0.00 0.00
10:52 am 10:52 Sunny 45 7.2 35 1.7 68 68 SSE 3 6 30.19 1023 8 13 0.00 0.00
11:52 am 11:52 Sunny 48 8.9 34 1.1 58 58 SE 5 7 30.18 1022 8 13 0.00 0.00
12:52 pm 12:52 Sunny 50 10 34 1.1 54 54 ESE 3 6 30.16 1022 8 13 0.00 0.00
1:52 pm 13:52 Sunny 50 10 35 1.7 57 57 S 6 9 30.15 1021 9 14 0.00 0.00
2:52 pm 14:52 Mostly Sunny 51 10.6 36 2.2 56 56 S 10 17 30.15 1021 9 14 0.00 0.00
3:52 pm 15:52 Mostly Sunny 49 9.4 36 2.2 61 61 S 6 9 30.17 1022 9 14 0.00 0.00
4:52 pm 16:52 Mostly Clear 49 9.4 34 1.1 56 56 S 5 7 30.19 1022 10 16 0.00 0.00
5:52 pm 17:52 Mostly Clear 45 7.2 36 2.2 71 71 S 5 7 30.20 1023 10 16 0.00 0.00
6:52 pm 18:52 Clear 46 7.8 36 2.2 68 68 Calm 30.21 1023 10 16 0.00 0.00
7:52 pm 19:52 Clear 42 5.6 37 2.8 82 82 Calm 30.22 1023 7 11 0.00 0.00
8:52 pm 20:52 Mostly Clear 41 5 36 2.2 82 82 SSW 3 6 30.22 1023 8 13 0.00 0.00
9:52 pm 21:52 Partly Cloudy 42 5.6 36 2.2 79 79 Calm 30.22 1024 7 11 0.00 0.00
10:52 pm 22:52 Clear with Mist and Fog 40 4.4 36 2.2 86 86 Calm 30.23 1024 6 10 0.00 0.00
11:52 pm 23:52 Clear with Mist and Fog 39 3.9 36 2.2 89 89 Calm 30.22 1023 6 10 0.00 0.00

Powered by AerisWeather